Tracking 17699 objects as of 31-May-2016
HD Live streaming from Space Station
objects crossing your sky now

METEOSAT 9 (MSG 2)

Track METEOSAT 9 (MSG 2) now!
METEOSAT 9 (MSG 2) is classified as:


NORAD ID: 28912
Int'l Code: 2005-049B
Perigee: 35,868.3 km
Apogee: 35,871.9 km
Inclination: 1.5 °
Period: 1,440.0 minutes
Semi major axis: 42241 km
RCS: 2.0767 m2 (large)
Launch date: December 21, 2005
Source: European Organisation for the Exploitation of Meteorological Satellites (EUME)
Launch site: FRENCH GUIANA (FRGUI)
Your satellite tracking list
Your tracking list is empty





NASA's NSSDC Master Catalog

Two Line Element Set (TLE):
1 28912U 05049B   16151.29659127  .00000056  00000-0  00000+0 0  9995
2 28912   1.4674  67.9380 0000432 250.9409  45.3467  1.00271149 38271
Source of the keplerian elements: AFSPC

N2YO: 574